Theta_e
355 358 358 357 357 358 360 360 360 360 360 361 360 361 359 357 358 361 357 354 356 353 353 353 354 355 357 357 353 353 355 354 356 353 352 350 349 343 353 355 354 353 349
356 356 356 355 358 359 360 360 361 361 361 362 363 363 360 359 359 358 356 352 352 352 352 353 353 352 353 355 355 353 349 352 354 358 353 350 352 353 352 352 350 349 347
357 358 359 360 361 362 363 362 362 361 361 361 362 363 362 360 357 355 351 351 350 350 350 351 349 347 349 353 351 353 350 350 348 352 354 350 348 350 350 350 351 348 345
356 357 358 360 363 363 362 361 362 361 361 361 362 362 360 356 354 351 349 349 350 349 349 347 346 344 346 350 349 348 346 346 350 351 350 345 346 343 344 349 343 342 341
349 351 353 356 358 359 361 361 360 360 360 361 362 360 356 354 353 349 350 349 351 347 346 346 344 341 340 339 341 340 340 340 347 346 344 342 340 341 340 336 336 333 332
343 345 347 350 354 357 358 359 358 358 358 360 359 356 355 355 351 346 347 348 348 347 347 343 343 341 339 340 339 338 340 344 341 339 339 337 332 332 330 331 328 327 327
338 339 341 345 349 351 354 355 355 355 355 358 358 355 353 352 346 341 345 347 347 347 345 343 342 339 342 340 340 339 338 338 338 337 334 332 329 329 327 325 327 324 322
336 336 337 338 342 346 349 353 354 355 354 356 353 351 350 347 343 341 342 346 344 344 344 342 342 340 339 339 339 338 336 335 332 335 335 332 331 328 328 329 330 328 326
334 335 336 337 338 341 346 348 351 354 354 351 350 349 346 344 340 339 338 344 342 342 341 340 340 338 337 337 337 336 332 325 323 325 324 323 322 322 329 329 332 330 330
335 334 334 335 336 337 340 346 347 349 348 348 347 345 347 342 339 338 340 342 340 337 334 330 330 327 331 330 333 332 331 329 327 327 323 323 323 320 324 327 325 325 325
332 332 333 334 335 335 336 340 345 345 345 345 346 346 345 342 337 337 339 337 337 333 329 325 321 321 321 323 326 328 330 326 325 326 326 326 325 325 324 324 325 323 323
331 332 334 330 330 331 334 338 341 343 342 340 342 341 338 335 333 335 334 334 334 331 329 324 315 313 314 319 323 320 323 327 326 325 324 324 323 322 321 321 322 322 321
331 329 329 329 328 328 331 336 339 341 340 339 337 335 331 331 329 327 328 328 326 326 326 320 317 321 321 319 318 319 321 322 322 322 322 321 320 320 320 321 320 320 320
325 325 326 323 324 326 329 334 338 337 333 330 328 327 324 323 319 321 321 322 323 321 319 319 318 318 320 316 317 319 319 317 318 319 319 320 319 319 319 319 318 318 318
322 322 325 325 324 320 319 326 329 327 327 326 325 323 320 318 316 318 320 320 320 322 321 320 319 320 320 321 320 319 318 318 319 319 320 319 319 318 319 318 318 317 317
325 323 324 325 325 325 320 317 322 325 324 323 323 322 321 318 318 319 320 321 320 320 321 322 321 321 321 320 320 318 317 317 319 319 319 319 318 318 317 317 317 316 316
323 323 323 323 321 321 322 322 318 316 323 324 325 321 317 315 315 317 316 318 319 319 321 321 320 320 320 320 319 318 316 317 315 318 317 317 317 317 316 316 316 316 316
322 321 321 320 320 319 317 317 317 316 315 312 313 313 314 315 315 315 314 315 315 316 320 321 320 320 319 319 319 319 317 316 317 317 316 316 316 316 316 316 316 316 314
320 320 320 320 319 317 315 314 314 315 315 315 314 314 314 313 313 313 315 317 321 320 320 320 320 321 320 320 319 319 318 315 315 316 315 315 315 315 315 315 315 313 312
322 321 321 321 321 320 321 320 319 316 315 316 318 314 313 315 316 316 316 318 320 320 320 319 319 320 320 320 320 319 317 315 315 315 315 315 315 314 315 315 314 314 313
323 321 321 320 319 320 319 319 319 320 320 320 318 317 316 315 317 319 320 320 320 320 320 320 319 320 319 320 319 318 317 315 314 314 314 313 313 313 313 314 313 313 313
324 322 321 320 320 320 321 321 320 319 319 319 319 320 318 318 319 319 320 320 319 319 320 319 319 319 318 318 318 318 316 316 316 315 314 313 313 313 313 314 314 314 313
321 321 320 321 320 319 319 318 319 321 320 320 320 320 320 319 320 319 319 319 319 319 319 319 319 319 319 319 317 317 317 316 316 315 314 315 315 314 313 313 314 313 314
320 321 320 319 319 319 319 320 320 319 320 319 318 319 319 319 319 319 319 319 319 319 319 319 318 319 318 318 318 318 317 317 316 316 315 315 315 314 315 315 313 313 313
320 320 320 320 320 320 319 319 319 319 319 319 319 319 320 319 319 319 319 319 319 319 319 319 319 319 318 319 318 319 319 319 317 316 315 315 315 315 315 315 314 314 314
320 320 319 319 320 320 320 320 320 320 320 319 319 319 320 320 320 319 320 319 320 319 320 318 319 320 320 319 318 317 317 316 315 313 311 311 313 314 313 313 314 313 314
Wind_Speed
14 21 15 18 23 18 22 20 21 24 24 21 24 21 22 22 21 17 18 14 11 11 14 16 18 20 21 22 28 27 21 23 12 15 4 5 6 7 5 7 6 5 7
7 6 12 19 10 18 20 20 18 22 23 24 22 21 20 21 20 20 18 14 9 9 11 13 17 18 20 22 24 24 28 26 18 13 5 8 10 9 7 6 7 4 3
4 5 9 10 12 16 18 19 19 20 22 23 25 24 22 20 20 18 14 11 9 9 8 6 9 15 18 20 20 20 18 12 17 11 5 8 8 6 4 4 2 2 0
5 6 7 9 11 14 16 18 19 20 21 22 22 22 19 19 19 17 12 9 8 8 4 2 5 10 9 9 8 8 11 12 9 3 5 10 7 4 6 3 6 5 3
8 8 8 10 12 13 15 16 18 20 21 23 20 18 19 22 19 17 13 11 9 8 5 3 4 2 1 5 7 6 5 4 1 9 11 9 9 8 8 6 6 6 6
11 12 13 14 15 14 14 15 19 20 21 20 22 22 24 21 19 21 14 11 11 9 9 5 4 2 3 2 2 2 8 12 11 9 7 8 8 10 8 9 3 2 3
14 14 15 16 16 18 18 17 18 19 18 21 20 22 19 15 18 16 17 12 12 12 10 11 9 7 8 5 7 9 9 9 7 9 12 10 9 8 6 6 7 6 6
17 17 18 18 20 19 18 19 19 18 20 18 16 18 17 17 17 20 19 9 13 11 8 8 10 13 11 7 8 9 11 11 8 6 6 7 4 6 4 3 4 5 9
22 22 22 22 23 23 21 19 19 17 15 16 15 16 13 14 15 19 17 12 13 13 11 9 9 11 15 11 11 11 10 9 7 7 6 5 5 6 6 5 6 5 5
25 27 27 26 24 25 27 20 19 16 14 15 14 15 15 14 16 18 17 15 15 12 11 12 15 12 13 11 8 10 9 7 11 11 11 9 8 7 6 4 1 6 5
27 28 28 29 28 26 27 27 20 19 19 18 16 14 14 13 17 21 20 16 17 16 15 13 10 12 11 11 9 6 10 8 8 9 8 7 6 5 4 3 3 4 6
25 26 25 25 25 24 25 23 23 19 20 17 14 14 15 16 17 21 17 15 18 16 14 16 13 12 14 14 11 13 13 8 7 6 4 5 1 1 3 2 2 3 3
21 20 18 14 17 20 24 20 19 16 15 15 12 15 15 16 18 11 12 13 13 11 14 15 19 20 20 18 17 14 6 3 4 3 2 2 2 2 3 3 3 3 7
18 17 16 13 9 6 6 3 9 11 12 12 17 17 19 20 13 19 17 14 11 17 22 23 20 13 15 12 11 6 7 5 4 4 4 2 1 1 1 1 3 4 4
19 21 19 16 17 22 21 15 17 14 16 20 21 22 24 20 15 12 11 20 20 13 14 15 13 10 11 10 8 6 6 5 4 4 2 2 1 1 1 2 2 3 4
15 18 22 19 22 21 22 29 29 27 29 31 28 30 28 25 21 13 11 13 15 15 10 8 10 8 9 8 7 5 6 3 4 1 2 2 2 2 1 2 1 2 3
15 15 16 19 23 23 22 23 25 36 22 20 18 30 29 29 23 15 6 11 15 10 4 5 6 6 7 7 5 4 3 5 1 3 2 2 2 2 3 3 2 2 2
13 16 16 16 18 21 24 25 25 24 23 22 26 24 22 23 21 17 16 11 7 5 7 8 7 7 5 4 4 3 2 3 4 3 3 3 4 5 6 5 5 3 4
11 13 15 17 17 18 22 25 24 22 20 16 18 18 15 10 7 7 7 7 10 12 6 5 6 5 5 4 3 2 0 3 3 3 5 5 5 6 7 7 6 4 5
8 6 8 3 12 9 9 13 14 14 15 11 8 10 10 6 4 5 8 7 10 4 3 4 4 4 1 2 0 1 4 4 5 6 7 7 6 8 9 7 8 8 9
1 6 4 7 6 9 7 9 9 7 6 8 10 13 14 15 15 16 13 13 9 6 5 8 2 5 3 3 5 5 5 7 6 7 8 9 9 10 9 10 9 10 12
8 4 2 5 2 2 2 3 4 7 8 9 9 12 14 15 13 16 22 14 9 7 6 4 5 2 8 9 11 9 6 8 7 8 10 10 11 12 12 11 12 15 12
3 1 0 1 3 2 3 4 3 4 15 15 14 12 9 9 12 4 3 1 3 4 2 2 2 5 4 3 3 4 10 8 6 8 11 13 12 13 16 17 15 17 18
3 0 2 3 3 4 3 2 3 0 2 1 2 1 3 2 4 3 2 2 5 4 5 3 3 7 6 7 8 10 13 14 15 11 14 17 19 18 22 18 20 22 24
4 2 1 1 1 1 1 1 3 0 5 4 2 2 1 2 4 4 4 6 6 8 7 9 10 8 11 9 12 12 13 14 14 17 17 18 22 23 23 23 24 26 26
4 1 2 2 2 1 1 1 1 3 3 5 4 6 9 9 11 7 11 9 13 8 15 9 14 11 8 10 9 9 12 15 16 19 17 15 18 20 21 23 25 25 28
Wind_Direction
211 227 227 221 225 251 254 244 239 241 245 246 248 224 213 215 213 208 224 222 224 249 265 267 261 260 253 250 255 250 248 258 247 251 147 238 131 313 226 188 198 182 211
335 303 302 281 278 267 259 253 250 250 246 244 243 233 215 212 206 205 218 226 218 244 262 274 281 276 264 257 250 249 240 245 233 234 238 149 145 196 199 195 212 182 188
356 284 271 287 279 268 268 267 258 253 250 246 237 228 213 202 207 208 205 209 229 237 239 268 298 307 285 262 255 242 232 252 256 241 214 130 144 151 167 187 188 218 330
352 335 323 307 294 275 266 261 256 251 249 243 238 218 205 213 214 212 217 225 217 202 168 197 287 312 341 271 236 219 222 229 239 201 125 103 108 82 65 83 78 82 73
330 312 301 297 290 280 270 259 255 250 246 241 220 208 214 218 217 223 227 227 206 182 159 263 269 325 66 70 88 88 97 103 123 103 92 97 83 88 85 60 70 31 24
311 301 297 294 295 287 277 267 244 244 241 232 219 217 220 215 228 227 218 196 194 195 183 185 192 118 74 166 187 133 243 176 139 133 133 130 140 143 141 120 57 80 61
304 302 298 291 280 279 276 263 247 242 241 233 223 217 218 218 214 208 177 180 196 184 185 177 168 136 115 113 110 116 114 114 127 140 140 146 158 169 159 154 207 208 209
306 304 300 295 286 277 270 265 260 238 240 235 216 212 206 190 197 185 181 184 168 174 179 190 152 139 131 139 125 113 106 98 97 108 116 137 136 161 172 184 234 262 270
316 309 302 295 291 292 276 271 264 258 228 220 216 202 188 184 195 183 178 173 155 154 163 167 169 138 149 143 134 123 112 110 107 117 115 138 151 163 171 188 190 237 237
316 308 302 296 286 282 285 271 259 242 218 212 207 193 194 173 191 188 183 175 155 159 154 154 145 137 147 141 135 136 139 122 130 113 105 103 107 110 104 63 135 303 312
316 306 302 293 285 278 277 279 248 226 215 214 208 197 192 178 187 187 181 170 172 168 162 155 143 140 142 142 118 134 133 139 144 130 125 148 162 146 128 52 15 344 330
315 298 301 294 281 277 283 277 259 215 208 207 192 171 172 176 176 177 197 205 174 172 158 131 138 139 130 128 128 136 145 157 152 131 160 155 135 36 35 0 346 345 327
348 341 330 318 297 290 283 275 262 207 188 199 180 147 133 145 155 149 147 146 147 144 137 134 134 132 125 118 119 120 124 139 121 152 135 79 31 13 323 228 297 263 267
359 351 355 11 17 35 45 344 235 170 138 131 126 112 107 114 107 126 121 108 113 115 120 128 128 134 127 122 118 111 97 84 76 85 91 103 191 288 292 9 318 336 329
19 14 10 27 30 38 57 76 105 120 142 128 121 114 110 99 98 95 123 121 116 135 131 148 139 147 149 149 122 108 108 126 135 107 139 153 221 266 300 333 341 338 330
37 28 26 37 40 48 64 66 96 112 115 114 116 124 115 107 109 117 109 141 143 152 165 171 150 179 170 138 121 121 126 125 102 164 194 206 244 262 7 294 334 326 331
28 47 44 53 48 38 40 60 66 68 106 109 117 124 117 118 113 111 122 136 170 214 255 149 172 188 141 135 115 101 83 105 150 233 241 233 249 266 237 250 255 282 321
48 38 61 59 62 60 58 58 64 67 64 68 96 112 119 118 128 152 161 181 198 238 293 190 193 164 173 140 107 74 56 182 202 231 252 268 263 261 269 266 264 263 319
65 60 65 70 70 83 89 85 78 78 77 71 78 83 89 107 140 164 178 236 257 215 234 225 191 181 171 160 133 79 23 289 320 299 273 263 266 265 270 274 285 264 263
89 66 17 137 122 109 101 102 105 104 103 115 120 119 121 141 198 241 252 258 270 251 275 251 197 229 126 93 109 340 288 244 236 247 248 260 264 264 271 270 280 297 299
290 101 91 99 54 27 85 101 110 124 152 178 195 201 204 212 231 243 241 227 249 253 269 311 157 183 200 204 252 266 276 273 266 263 267 264 262 268 268 268 277 281 277
236 257 356 33 59 153 286 263 198 194 204 215 219 185 200 217 246 254 252 217 216 248 226 226 282 270 223 232 239 242 287 277 283 274 262 265 266 267 269 279 286 286 295
250 353 307 75 12 340 264 280 279 222 217 233 235 218 202 223 247 252 308 99 186 251 274 230 258 292 303 294 297 263 270 283 258 275 278 291 286 279 276 266 272 283 282
156 293 94 82 31 1 51 103 119 162 11 272 128 221 210 207 225 188 256 262 215 240 244 222 252 257 248 251 257 258 264 277 275 269 271 275 282 280 276 274 275 274 275
120 121 144 349 249 338 149 319 5 360 191 202 211 241 82 273 297 266 255 275 256 256 243 241 243 265 256 260 272 276 283 287 281 281 281 277 274 274 275 275 279 274 274
125 206 212 216 230 303 244 207 276 290 308 280 268 258 256 251 229 231 247 232 237 254 260 238 261 242 260 289 274 258 266 276 282 284 281 275 274 275 273 269 269 272 269